Weather History for Sparta, TN

Change the Weather History Date:

Thursday, February 7, 2013

  Actual Average (KCSV) Record (KCSV)
Temperature  
Mean Temperature 47 °F 38 °F  
Max Temperature 59 °F 47 °F 64 °F (2001)
Min Temperature 35 °F 29 °F 2 °F (1978)
Degree Days  
Heating Degree Days 18    
Month to date heating degree days  
Since 1 July heating degree days  
Cooling Degree Days 0    
Month to date cooling degree days  
Year to date cooling degree days  
Moisture  
Dew Point 41 °F    
Average Humidity 83    
Maximum Humidity 100    
Minimum Humidity 51    
Precipitation  
Precipitation 0.00 in 0.16 in 0.90 in (1961)
Month to date precipitation 1.13  
Year to date precipitation 5.89  
Sea Level Pressure  
Sea Level Pressure 30.01 in    
Wind  
Wind Speed 2 mph (SSE)    
Max Wind Speed 13 mph    
Max Gust Speed -    
Visibility 9 miles    
Events      
T = Trace of Precipitation, MM = Missing Value Source: NWS Daily Summary

Daily Weather History Graph

Daily Weather History Graph

Search for Another Location

Airport:

Trip Planner

Search our weather history database for the weather conditions in past years. The results will help you decide how hot, cold, wet, or windy it might be!

Date:

Astronomy

Feb. 07, 2013 Rise Set
Actual Time 6:37 AM CST 5:15 PM CST
Civil Twilight 6:10 AM CST 5:42 PM CST
Nautical Twilight 5:40 AM CST 6:12 PM CST
Astronomical Twilight 5:10 AM CST 6:42 PM CST
Moon 4:13 AM CST (2/7) 2:41 PM CST (2/7)
Length of Visible Light 11h 31m
Length of Day
10h 38m
Waning Crescent, 9% of the Moon is Illuminated
Feb 7
Waning Crescent
Feb 10
New
Feb 17
First Quarter
Feb 25
Full
Mar 4
Last Quarter

Hourly Weather History & Observations

Time (CST) Temp. Windchill Dew Point Humidity Pressure Visibility Wind Dir Wind Speed Gust Speed Precip Events Conditions
12:15 AM 37.4 °F - 35.6 °F 93% 30.10 in 10.0 mi Calm Calm - N/A   Clear
12:35 AM 37.4 °F - 35.6 °F 93% 30.10 in 10.0 mi Calm Calm - N/A   Clear
12:55 AM 39.2 °F - 35.6 °F 87% 30.11 in 10.0 mi Calm Calm - N/A   Clear
1:15 AM 37.4 °F - 35.6 °F 93% 30.11 in 10.0 mi Calm Calm - N/A   Clear
1:35 AM 37.4 °F - 35.6 °F 93% 30.11 in 10.0 mi Calm Calm - N/A   Clear
1:55 AM 37.4 °F - 37.4 °F 100% 30.11 in 10.0 mi Calm Calm - N/A   Clear
2:15 AM 37.4 °F - 35.6 °F 93% 30.11 in 10.0 mi Calm Calm - N/A   Clear
2:35 AM 35.6 °F - 35.6 °F 100% 30.11 in 10.0 mi Calm Calm - N/A   Clear
2:55 AM 37.4 °F - 35.6 °F 93% 30.10 in 10.0 mi Calm Calm - N/A   Clear
3:15 AM 37.4 °F - 35.6 °F 93% 30.10 in 10.0 mi Calm Calm - N/A   Clear
3:35 AM 37.4 °F - 35.6 °F 93% 30.09 in 10.0 mi Calm Calm - N/A   Clear
3:55 AM 37.4 °F - 35.6 °F 93% 30.09 in 10.0 mi Calm Calm - N/A   Clear
4:15 AM 37.4 °F - 35.6 °F 93% 30.08 in 10.0 mi Calm Calm - N/A   Clear
4:35 AM 37.4 °F - 35.6 °F 93% 30.08 in 10.0 mi Calm Calm - N/A   Clear
4:55 AM 37.4 °F - 35.6 °F 93% 30.07 in 10.0 mi Calm Calm - N/A   Clear
5:15 AM 37.4 °F - 37.4 °F 100% 30.07 in 10.0 mi Calm Calm - N/A   Clear
5:35 AM 37.4 °F - 37.4 °F 100% 30.07 in 10.0 mi Calm Calm - N/A   Clear
5:55 AM 39.2 °F - 37.4 °F 93% 30.07 in 10.0 mi Calm Calm - N/A   Clear
6:15 AM 37.4 °F - 37.4 °F 100% 30.07 in 10.0 mi Calm Calm - N/A   Clear
6:35 AM 37.4 °F - 35.6 °F 93% 30.07 in 10.0 mi Calm Calm - N/A   Mostly Cloudy
6:55 AM 39.2 °F - 35.6 °F 87% 30.07 in 10.0 mi Calm Calm - N/A   Partly Cloudy
7:15 AM 39.2 °F 35.9 °F 37.4 °F 93% 30.07 in 10.0 mi SSE 4.6 mph - N/A   Clear
7:35 AM 44.6 °F 42.2 °F 35.6 °F 71% 30.07 in 10.0 mi SSE 4.6 mph - N/A   Partly Cloudy
7:55 AM 48.2 °F - 35.6 °F 62% 30.07 in 10.0 mi SSE 5.8 mph - N/A   Scattered Clouds
8:15 AM 48.2 °F - 35.6 °F 62% 30.07 in 10.0 mi Calm Calm - N/A   Mostly Cloudy
8:35 AM 50.0 °F - 37.4 °F 62% 30.07 in 10.0 mi Calm Calm - N/A   Partly Cloudy
8:55 AM 51.8 °F - 35.6 °F 54% 30.06 in 10.0 mi SSE 5.8 mph - N/A   Partly Cloudy
9:15 AM 51.8 °F - 35.6 °F 54% 30.06 in 10.0 mi SE 4.6 mph - N/A   Scattered Clouds
9:35 AM 53.6 °F - 35.6 °F 51% 30.05 in 10.0 mi SE 5.8 mph - N/A   Partly Cloudy
9:55 AM 53.6 °F - 37.4 °F 54% 30.05 in 10.0 mi SSE 4.6 mph - N/A   Partly Cloudy
10:15 AM 53.6 °F - 37.4 °F 54% 30.05 in 10.0 mi SSE 9.2 mph - N/A   Partly Cloudy
10:35 AM 53.6 °F - 37.4 °F 54% 30.04 in 10.0 mi SSE 6.9 mph - N/A   Partly Cloudy
10:55 AM 53.6 °F - 37.4 °F 54% 30.04 in 10.0 mi SSE 6.9 mph - N/A   Scattered Clouds
11:15 AM 53.6 °F - 37.4 °F 54% 30.03 in 10.0 mi SSE 8.1 mph - N/A   Partly Cloudy
11:35 AM 53.6 °F - 39.2 °F 58% 30.03 in 10.0 mi SSE 6.9 mph - N/A   Partly Cloudy
11:55 AM 55.4 °F - 39.2 °F 54% 30.01 in 10.0 mi SSE 4.6 mph - N/A   Mostly Cloudy
12:15 PM 55.4 °F - 39.2 °F 54% 29.99 in 10.0 mi SSE 5.8 mph - N/A   Scattered Clouds
12:35 PM 57.2 °F - 41.0 °F 55% 29.98 in 10.0 mi South 4.6 mph - N/A   Partly Cloudy
12:55 PM 57.2 °F - 42.8 °F 59% 29.97 in 10.0 mi SSE 8.1 mph - N/A   Clear
1:15 PM 57.2 °F - 42.8 °F 59% 29.97 in 10.0 mi South 9.2 mph - N/A   Clear
1:35 PM 57.2 °F - 42.8 °F 59% 29.96 in 10.0 mi SSE 10.4 mph - N/A   Partly Cloudy
1:55 PM 59.0 °F - 44.6 °F 59% 29.95 in 10.0 mi South 11.5 mph - N/A   Clear
2:15 PM 57.2 °F - 44.6 °F 63% 29.95 in 10.0 mi South 10.4 mph - N/A   Scattered Clouds
2:35 PM 57.2 °F - 44.6 °F 63% 29.96 in 10.0 mi SSE 9.2 mph - N/A   Mostly Cloudy
2:55 PM 55.4 °F - 46.4 °F 72% 29.96 in 10.0 mi SSE 12.7 mph - N/A   Overcast
3:15 PM 53.6 °F - 46.4 °F 77% 29.96 in 10.0 mi South 6.9 mph - N/A   Overcast
3:35 PM 53.6 °F - 46.4 °F 77% 29.96 in 10.0 mi SSW 4.6 mph - N/A   Overcast
3:55 PM 51.8 °F - 46.4 °F 82% 29.96 in 4.0 mi South 5.8 mph - N/A   Overcast
4:15 PM 51.8 °F - 48.2 °F 88% 29.96 in 10.0 mi South 3.5 mph - N/A   Overcast
4:35 PM 51.8 °F - 46.4 °F 82% 29.96 in 10.0 mi SSE 3.5 mph - N/A   Overcast
4:55 PM 51.8 °F - 46.4 °F 82% 29.96 in 10.0 mi South 9.2 mph - N/A   Overcast
5:35 PM 48.2 °F - 48.2 °F 100% 29.97 in 7.0 mi SSW 4.6 mph - N/A   Overcast
5:55 PM 48.2 °F - 48.2 °F 100% 29.97 in 5.0 mi SSE 3.5 mph - N/A   Unknown
6:15 PM 48.2 °F - 46.4 °F 93% 29.97 in 4.0 mi SSE 3.5 mph - N/A   Unknown
6:35 PM 48.2 °F - 46.4 °F 93% 29.97 in 9.0 mi Calm Calm - N/A   Mostly Cloudy
6:55 PM 46.4 °F - 46.4 °F 100% 29.97 in 4.0 mi Calm Calm - N/A   Overcast
7:15 PM 46.4 °F 45.2 °F 46.4 °F 100% 29.96 in 5.0 mi SSE 3.5 mph - N/A   Overcast
7:35 PM 46.4 °F 45.2 °F 46.4 °F 100% 29.95 in 9.0 mi SSE 3.5 mph - N/A   Overcast
7:55 PM 46.4 °F 45.2 °F 46.4 °F 100% 29.95 in 10.0 mi ESE 3.5 mph - N/A   Overcast
8:15 PM 46.4 °F - 46.4 °F 100% 29.95 in 10.0 mi Calm Calm - N/A   Overcast
8:35 PM 46.4 °F - 46.4 °F 100% 29.95 in 10.0 mi Calm Calm - N/A   Overcast
8:55 PM 42.8 °F - 42.8 °F 100% 29.94 in 7.0 mi Calm Calm - N/A   Scattered Clouds
9:15 PM 42.8 °F - 42.8 °F 100% 29.94 in 1.0 mi Calm Calm - N/A   Mostly Cloudy
9:35 PM 44.6 °F - 44.6 °F 100% 29.94 in 6.0 mi Calm Calm - N/A   Overcast
9:55 PM 42.8 °F - 42.8 °F 100% 29.93 in 6.0 mi Calm Calm - N/A   Mostly Cloudy
10:15 PM 42.8 °F 41.1 °F 42.8 °F 100% 29.93 in 2.5 mi South 3.5 mph - N/A   Partly Cloudy
10:35 PM 42.8 °F - 41.0 °F 93% 29.93 in 10.0 mi Calm Calm - N/A   Partly Cloudy
10:55 PM 42.8 °F - 41.0 °F 93% 29.92 in 7.0 mi Calm Calm - N/A   Mostly Cloudy
11:15 PM 42.8 °F - 42.8 °F 100% 29.92 in 10.0 mi Calm Calm - N/A   Mostly Cloudy
11:35 PM 44.6 °F 42.2 °F 44.6 °F 100% 29.92 in 10.0 mi South 4.6 mph - N/A   Overcast
11:55 PM 46.4 °F 45.2 °F 44.6 °F 93% 29.92 in 10.0 mi SSW 3.5 mph - N/A   Overcast